contact:dominique.lefevre@mio.osupytheas.fr, maurice.libes@osupytheas.fr, didier.mallarino@osupytheas.fr
Project:EMSO http://www.emso-fr.org/EMSO-France
Depth: 2436.0 m
Title:EMSO Ligure Ouest : Data MII capteur CSTAR
DateTime,Latitude,Longitude,Instrument_Serial,Reference_Counts,Signal_Counts,Corrected_Signal_raw_counts,Calculated_Beam_c_inverse_meters,Internal_thermistor_counts
DateTime,Latitude,Longitude,Instrument_Serial,Reference_Counts,Signal_Counts,Corrected_Signal_raw_counts,Calculated_Beam_c_inverse_meters,Internal_thermistor_counts
2023-03-15T00:02:47,42.805,6.029,CST-1368DR,4353,4723,11524,01.215,551
2023-03-15T00:05:49,42.805,6.029,CST-1368DR,4353,4722,11521,01.216,551
2023-03-15T00:08:50,42.805,6.029,CST-1368DR,4353,4722,11521,01.216,551
2023-03-15T00:11:52,42.805,6.029,CST-1368DR,4353,4724,11526,01.215,551
2023-03-15T00:14:53,42.805,6.029,CST-1368DR,4353,4722,11521,01.216,551
2023-03-15T00:17:55,42.805,6.029,CST-1368DR,4353,4724,11526,01.215,551
2023-03-15T00:20:57,42.805,6.029,CST-1368DR,4353,4724,11527,01.214,551
2023-03-15T00:23:58,42.805,6.029,CST-1368DR,4353,4720,11518,01.218,551
2023-03-15T00:27:00,42.805,6.029,CST-1368DR,4353,4722,11521,01.216,551
2023-03-15T00:30:01,42.805,6.029,CST-1368DR,4353,4719,11514,01.219,551
2023-03-15T00:33:03,42.805,6.029,CST-1368DR,4353,4723,11526,01.215,551
2023-03-15T00:36:04,42.805,6.029,CST-1368DR,4353,4725,11529,01.214,551
2023-03-15T00:39:06,42.805,6.029,CST-1368DR,4353,4719,11516,01.218,551
2023-03-15T00:42:08,42.805,6.029,CST-1368DR,4353,4722,11521,01.216,551
2023-03-15T00:45:09,42.805,6.029,CST-1368DR,4353,4723,11524,01.215,551
2023-03-15T00:48:11,42.805,6.029,CST-1368DR,4353,4724,11526,01.215,551
2023-03-15T00:51:12,42.805,6.029,CST-1368DR,4353,4722,11521,01.216,551
2023-03-15T00:54:14,42.805,6.029,CST-1368DR,4353,4724,11526,01.215,551
2023-03-15T00:57:16,42.805,6.029,CST-1368DR,4353,4723,11524,01.215,551
2023-03-15T01:00:17,42.805,6.029,CST-1368DR,4353,4709,11491,01.227,551
2023-03-15T01:03:19,42.805,6.029,CST-1368DR,4353,4722,11521,01.216,551
2023-03-15T01:06:20,42.805,6.029,CST-1368DR,4353,4723,11524,01.215,551
2023-03-15T01:09:22,42.805,6.029,CST-1368DR,4353,4723,11526,01.215,551
2023-03-15T01:12:23,42.805,6.029,CST-1368DR,4353,4723,11525,01.215,551
2023-03-15T01:15:25,42.805,6.029,CST-1368DR,4353,4722,11521,01.216,551
2023-03-15T01:18:27,42.805,6.029,CST-1368DR,4353,4721,11521,01.216,551
2023-03-15T01:21:28,42.805,6.029,CST-1368DR,4353,4724,11526,01.215,551
2023-03-15T01:24:30,42.805,6.029,CST-1368DR,4353,4725,11529,01.214,551
2023-03-15T01:27:31,42.805,6.029,CST-1368DR,4353,4722,11523,01.216,551
2023-03-15T01:30:33,42.805,6.029,CST-1368DR,4353,4720,11518,01.218,551
2023-03-15T01:33:34,42.805,6.029,CST-1368DR,4353,4723,11524,01.215,551
2023-03-15T01:36:36,42.805,6.029,CST-1368DR,4353,4723,11525,01.215,551
2023-03-15T01:39:38,42.805,6.029,CST-1368DR,4353,4724,11527,01.214,551
2023-03-15T01:42:39,42.805,6.029,CST-1368DR,4353,4723,11526,01.215,551
2023-03-15T01:45:41,42.805,6.029,CST-1368DR,4353,4723,11524,01.215,551
2023-03-15T01:48:42,42.805,6.029,CST-1368DR,4353,4725,11529,01.214,551
2023-03-15T01:51:44,42.805,6.029,CST-1368DR,4353,4724,11527,01.214,551
2023-03-15T01:54:46,42.805,6.029,CST-1368DR,4353,4721,11521,01.216,551
2023-03-15T01:57:47,42.805,6.029,CST-1368DR,4353,4725,11529,01.214,551
2023-03-15T02:00:49,42.805,6.029,CST-1368DR,4353,4722,11523,01.216,551
2023-03-15T02:03:50,42.805,6.029,CST-1368DR,4353,4722,11521,01.216,551
2023-03-15T02:06:52,42.805,6.029,CST-1368DR,4353,4724,11526,01.215,551
2023-03-15T02:09:53,42.805,6.029,CST-1368DR,4353,4723,11524,01.215,551
2023-03-15T02:12:55,42.805,6.029,CST-1368DR,4353,4722,11523,01.216,551
2023-03-15T02:15:57,42.805,6.029,CST-1368DR,4353,4723,11525,01.215,551
2023-03-15T02:18:58,42.805,6.029,CST-1368DR,4353,4723,11524,01.215,551
2023-03-15T02:22:00,42.805,6.029,CST-1368DR,4353,4725,11530,01.213,551
2023-03-15T02:25:01,42.805,6.029,CST-1368DR,4353,4723,11524,01.215,551
2023-03-15T02:28:03,42.805,6.029,CST-1368DR,4353,4723,11524,01.215,551
2023-03-15T02:31:04,42.805,6.029,CST-1368DR,4353,4724,11527,01.214,551
2023-03-15T02:34:06,42.805,6.029,CST-1368DR,4353,4723,11524,01.215,551
2023-03-15T02:37:08,42.805,6.029,CST-1368DR,4353,4725,11529,01.214,551
2023-03-15T02:40:09,42.805,6.029,CST-1368DR,4353,4722,11523,01.216,551
2023-03-15T02:43:11,42.805,6.029,CST-1368DR,4353,4723,11525,01.215,551
2023-03-15T02:46:12,42.805,6.029,CST-1368DR,4353,4723,11525,01.215,551
2023-03-15T02:49:14,42.805,6.029,CST-1368DR,4353,4722,11522,01.216,551
2023-03-15T02:52:16,42.805,6.029,CST-1368DR,4352,4717,11512,01.220,551
2023-03-15T02:55:17,42.805,6.029,CST-1368DR,4353,4721,11521,01.216,551
2023-03-15T02:58:19,42.805,6.029,CST-1368DR,4353,4721,11520,01.217,551
2023-03-15T03:01:20,42.805,6.029,CST-1368DR,4353,4723,11526,01.215,551
2023-03-15T03:04:22,42.805,6.029,CST-1368DR,4353,4721,11519,01.217,551
2023-03-15T03:07:23,42.805,6.029,CST-1368DR,4353,4722,11521,01.216,551
2023-03-15T03:10:25,42.805,6.029,CST-1368DR,4353,4722,11521,01.216,551
2023-03-15T03:13:27,42.805,6.029,CST-1368DR,4353,4723,11525,01.215,551
2023-03-15T03:16:28,42.805,6.029,CST-1368DR,4353,4722,11521,01.216,551
2023-03-15T03:19:30,42.805,6.029,CST-1368DR,4353,4723,11526,01.215,551
2023-03-15T03:22:31,42.805,6.029,CST-1368DR,4353,4723,11524,01.215,551
2023-03-15T03:25:33,42.805,6.029,CST-1368DR,4352,4717,11514,01.219,551
2023-03-15T03:28:34,42.805,6.029,CST-1368DR,4353,4718,11513,01.219,551
2023-03-15T03:31:36,42.805,6.029,CST-1368DR,4353,4718,11513,01.219,551
2023-03-15T03:34:38,42.805,6.029,CST-1368DR,4353,4722,11523,01.216,551
2023-03-15T03:37:39,42.805,6.029,CST-1368DR,4353,4720,11518,01.218,551
2023-03-15T03:40:41,42.805,6.029,CST-1368DR,4353,4719,11515,01.219,551
2023-03-15T03:43:42,42.805,6.029,CST-1368DR,4353,4722,11521,01.216,551
2023-03-15T03:46:44,42.805,6.029,CST-1368DR,4352,4720,11520,01.217,551
2023-03-15T03:49:46,42.805,6.029,CST-1368DR,4353,4720,11518,01.218,551
2023-03-15T03:52:47,42.805,6.029,CST-1368DR,4353,4719,11516,01.218,551
2023-03-15T03:55:49,42.805,6.029,CST-1368DR,4353,4719,11515,01.219,551
2023-03-15T03:58:50,42.805,6.029,CST-1368DR,4352,4723,11527,01.214,551
2023-03-15T04:01:52,42.805,6.029,CST-1368DR,4352,4720,11521,01.216,551
2023-03-15T04:04:53,42.805,6.029,CST-1368DR,4352,4721,11523,01.216,551
2023-03-15T04:07:55,42.805,6.029,CST-1368DR,4352,4714,11506,01.222,551
2023-03-15T04:10:57,42.805,6.029,CST-1368DR,4352,4719,11517,01.218,551
2023-03-15T04:13:58,42.805,6.029,CST-1368DR,4352,4717,11514,01.219,551
2023-03-15T04:17:00,42.805,6.029,CST-1368DR,4352,4717,11512,01.220,551
2023-03-15T04:20:01,42.805,6.029,CST-1368DR,4352,4723,11527,01.214,551
2023-03-15T04:23:03,42.805,6.029,CST-1368DR,4352,4718,11515,01.219,551
2023-03-15T04:26:04,42.805,6.029,CST-1368DR,4352,4720,11519,01.217,551
2023-03-15T04:29:06,42.805,6.029,CST-1368DR,4352,4717,11513,01.219,551
2023-03-15T04:32:08,42.805,6.029,CST-1368DR,4352,4717,11512,01.220,551
2023-03-15T04:35:09,42.805,6.029,CST-1368DR,4352,4721,11522,01.216,551
2023-03-15T04:38:11,42.805,6.029,CST-1368DR,4352,4720,11520,01.217,551
2023-03-15T04:41:12,42.805,6.029,CST-1368DR,4352,4720,11520,01.217,551
2023-03-15T04:44:14,42.805,6.029,CST-1368DR,4352,4721,11521,01.216,551
2023-03-15T04:47:16,42.805,6.029,CST-1368DR,4352,4714,11505,01.222,551
2023-03-15T04:50:17,42.805,6.029,CST-1368DR,4352,4721,11522,01.216,551
2023-03-15T04:53:19,42.805,6.029,CST-1368DR,4352,4717,11512,01.220,551
2023-03-15T04:56:20,42.805,6.029,CST-1368DR,4352,4718,11515,01.219,551
2023-03-15T04:59:22,42.805,6.029,CST-1368DR,4352,4718,11515,01.219,551
2023-03-15T05:02:23,42.805,6.029,CST-1368DR,4352,4718,11515,01.219,551
2023-03-15T05:05:25,42.805,6.029,CST-1368DR,4352,4719,11518,01.218,551
2023-03-15T05:08:27,42.805,6.029,CST-1368DR,4352,4716,11511,01.220,551
2023-03-15T05:11:28,42.805,6.029,CST-1368DR,4352,4720,11520,01.217,551
2023-03-15T05:14:30,42.805,6.029,CST-1368DR,4352,4718,11516,01.218,551
2023-03-15T05:17:31,42.805,6.029,CST-1368DR,4352,4721,11523,01.216,551
2023-03-15T05:20:33,42.805,6.029,CST-1368DR,4352,4718,11515,01.219,551
2023-03-15T05:23:34,42.805,6.029,CST-1368DR,4353,4717,11509,01.221,551
2023-03-15T05:26:36,42.805,6.029,CST-1368DR,4352,4718,11515,01.219,551
2023-03-15T05:29:38,42.805,6.029,CST-1368DR,4353,4719,11515,01.219,551
2023-03-15T05:32:39,42.805,6.029,CST-1368DR,4352,4708,11492,01.227,551
2023-03-15T05:35:41,42.805,6.029,CST-1368DR,4352,4718,11515,01.219,551
2023-03-15T05:38:42,42.805,6.029,CST-1368DR,4352,4721,11523,01.216,551
2023-03-15T05:41:44,42.805,6.029,CST-1368DR,4352,4722,11524,01.215,551
2023-03-15T05:44:46,42.805,6.029,CST-1368DR,4352,4715,11508,01.221,551
2023-03-15T05:47:47,42.805,6.029,CST-1368DR,4352,4716,11511,01.220,551
2023-03-15T05:50:49,42.805,6.029,CST-1368DR,4352,4716,11510,01.220,551
2023-03-15T05:53:50,42.805,6.029,CST-1368DR,4352,4715,11508,01.221,551
2023-03-15T05:56:52,42.805,6.029,CST-1368DR,4352,4713,11504,01.222,551
2023-03-15T05:59:53,42.805,6.029,CST-1368DR,4352,4713,11504,01.222,551
2023-03-15T06:02:55,42.805,6.029,CST-1368DR,4352,4716,11510,01.220,551
2023-03-15T06:05:57,42.805,6.029,CST-1368DR,4352,4717,11512,01.220,551
2023-03-15T06:08:58,42.805,6.029,CST-1368DR,4352,4718,11515,01.219,551
2023-03-15T06:12:00,42.805,6.029,CST-1368DR,4352,4717,11513,01.219,551
2023-03-15T06:15:01,42.805,6.029,CST-1368DR,4352,4714,11504,01.222,551
2023-03-15T06:18:03,42.805,6.029,CST-1368DR,4352,4709,11493,01.226,551
2023-03-15T06:21:05,42.805,6.029,CST-1368DR,4353,4729,11539,01.210,551
2023-03-15T06:24:06,42.805,6.029,CST-1368DR,4352,4717,11513,01.219,551
2023-03-15T06:27:08,42.805,6.029,CST-1368DR,4352,4717,11513,01.219,551
2023-03-15T06:30:09,42.805,6.029,CST-1368DR,4352,4715,11509,01.221,551
2023-03-15T06:33:11,42.805,6.029,CST-1368DR,4352,4715,11507,01.221,551
2023-03-15T06:36:12,42.805,6.029,CST-1368DR,4352,4712,11501,01.223,551
2023-03-15T06:39:14,42.805,6.029,CST-1368DR,4352,4716,11509,01.221,551
2023-03-15T06:42:16,42.805,6.029,CST-1368DR,4352,4710,11496,01.225,551
2023-03-15T06:45:17,42.805,6.029,CST-1368DR,4352,4715,11509,01.221,551
2023-03-15T06:48:19,42.805,6.029,CST-1368DR,4352,4712,11500,01.224,551
2023-03-15T06:51:20,42.805,6.029,CST-1368DR,4352,4715,11507,01.221,551
2023-03-15T06:54:22,42.805,6.029,CST-1368DR,4352,4717,11513,01.219,551
2023-03-15T06:57:23,42.805,6.029,CST-1368DR,4352,4716,11509,01.221,551
2023-03-15T07:00:25,42.805,6.029,CST-1368DR,4352,4711,11497,01.225,551
2023-03-15T07:03:27,42.805,6.029,CST-1368DR,4353,4728,11537,01.211,551
2023-03-15T07:06:28,42.805,6.029,CST-1368DR,4352,4718,11515,01.219,551
2023-03-15T07:09:30,42.805,6.029,CST-1368DR,4352,4717,11512,01.220,551
2023-03-15T07:12:31,42.805,6.029,CST-1368DR,4352,4716,11510,01.220,551
2023-03-15T07:15:33,42.805,6.029,CST-1368DR,4352,4717,11513,01.219,551
2023-03-15T07:18:35,42.805,6.029,CST-1368DR,4352,4711,11499,01.224,551
2023-03-15T07:21:36,42.805,6.029,CST-1368DR,4352,4715,11509,01.221,551
2023-03-15T07:24:38,42.805,6.029,CST-1368DR,4352,4716,11509,01.221,551
2023-03-15T07:27:39,42.805,6.029,CST-1368DR,4352,4718,11515,01.219,551
2023-03-15T07:30:41,42.805,6.029,CST-1368DR,4352,4721,11523,01.216,551
2023-03-15T07:33:42,42.805,6.029,CST-1368DR,4352,4716,11509,01.221,551
2023-03-15T07:36:44,42.805,6.029,CST-1368DR,4352,4714,11506,01.222,551
2023-03-15T07:39:46,42.805,6.029,CST-1368DR,4352,4719,11517,01.218,551
2023-03-15T07:42:47,42.805,6.029,CST-1368DR,4352,4716,11510,01.220,551
2023-03-15T07:45:49,42.805,6.029,CST-1368DR,4352,4718,11516,01.218,551
2023-03-15T07:48:50,42.805,6.029,CST-1368DR,4352,4718,11516,01.218,551
2023-03-15T07:51:52,42.805,6.029,CST-1368DR,4352,4719,11517,01.218,551
2023-03-15T07:54:53,42.805,6.029,CST-1368DR,4352,4716,11510,01.220,551
2023-03-15T07:57:55,42.805,6.029,CST-1368DR,4353,4719,11514,01.219,551
2023-03-15T08:00:57,42.805,6.029,CST-1368DR,4352,4717,11514,01.219,551
2023-03-15T08:03:58,42.805,6.029,CST-1368DR,4352,4718,11516,01.218,551
2023-03-15T08:07:00,42.805,6.029,CST-1368DR,4352,4721,11523,01.216,551
2023-03-15T08:10:01,42.805,6.029,CST-1368DR,4352,4720,11521,01.216,551
2023-03-15T08:13:03,42.805,6.029,CST-1368DR,4352,4720,11521,01.216,551
2023-03-15T08:16:04,42.805,6.029,CST-1368DR,4352,4719,11518,01.218,551
2023-03-15T08:19:06,42.805,6.029,CST-1368DR,4352,4715,11507,01.221,551
2023-03-15T08:22:08,42.805,6.029,CST-1368DR,4352,4719,11517,01.218,551
2023-03-15T08:25:09,42.805,6.029,CST-1368DR,4352,4717,11514,01.219,551
2023-03-15T08:28:11,42.805,6.029,CST-1368DR,4352,4720,11520,01.217,551
2023-03-15T08:31:12,42.805,6.029,CST-1368DR,4352,4722,11526,01.215,551
2023-03-15T08:34:14,42.805,6.029,CST-1368DR,4352,4722,11524,01.215,551
2023-03-15T08:37:16,42.805,6.029,CST-1368DR,4352,4722,11526,01.215,551
2023-03-15T08:40:17,42.805,6.029,CST-1368DR,4352,4724,11530,01.213,551
2023-03-15T08:43:19,42.805,6.029,CST-1368DR,4352,4716,11511,01.220,551
2023-03-15T08:46:20,42.805,6.029,CST-1368DR,4352,4719,11517,01.218,551
2023-03-15T08:49:22,42.805,6.029,CST-1368DR,4352,4722,11525,01.215,551
2023-03-15T08:52:23,42.805,6.029,CST-1368DR,4352,4722,11525,01.215,551
2023-03-15T08:55:25,42.805,6.029,CST-1368DR,4352,4717,11512,01.220,551
2023-03-15T08:58:27,42.805,6.029,CST-1368DR,4352,4717,11512,01.220,551
2023-03-15T09:01:28,42.805,6.029,CST-1368DR,4352,4725,11532,01.213,551
2023-03-15T09:04:30,42.805,6.029,CST-1368DR,4352,4721,11521,01.216,551
2023-03-15T09:07:31,42.805,6.029,CST-1368DR,4352,4716,11510,01.220,551
2023-03-15T09:10:33,42.805,6.029,CST-1368DR,4352,4719,11518,01.218,551
2023-03-15T09:13:34,42.805,6.029,CST-1368DR,4352,4711,11497,01.225,551
2023-03-15T09:16:36,42.805,6.029,CST-1368DR,4352,4709,11493,01.226,551
2023-03-15T09:19:38,42.805,6.029,CST-1368DR,4352,4712,11501,01.223,551
2023-03-15T09:22:39,42.805,6.029,CST-1368DR,4352,4708,11491,01.227,551
2023-03-15T09:25:41,42.805,6.029,CST-1368DR,4352,4714,11505,01.222,551
2023-03-15T09:28:42,42.805,6.029,CST-1368DR,4352,4713,11502,01.223,551
2023-03-15T09:31:44,42.805,6.029,CST-1368DR,4352,4715,11509,01.221,551
2023-03-15T09:34:46,42.805,6.029,CST-1368DR,4352,4716,11510,01.220,551
2023-03-15T09:37:47,42.805,6.029,CST-1368DR,4352,4715,11508,01.221,551
2023-03-15T09:40:49,42.805,6.029,CST-1368DR,4352,4714,11506,01.222,551
2023-03-15T09:43:50,42.805,6.029,CST-1368DR,4352,4706,11486,01.229,551
2023-03-15T09:46:52,42.805,6.029,CST-1368DR,4352,4703,11478,01.231,551
2023-03-15T09:49:53,42.805,6.029,CST-1368DR,4352,4705,11484,01.229,551
2023-03-15T09:52:55,42.805,6.029,CST-1368DR,4352,4708,11490,01.227,551
2023-03-15T09:55:57,42.805,6.029,CST-1368DR,4352,4706,11485,01.229,551
2023-03-15T09:58:58,42.805,6.029,CST-1368DR,4352,4697,11464,01.236,551
2023-03-15T10:02:00,42.805,6.029,CST-1368DR,4352,4703,11479,01.231,551
2023-03-15T10:05:01,42.805,6.029,CST-1368DR,4352,4706,11485,01.229,551
2023-03-15T10:08:03,42.805,6.029,CST-1368DR,4352,4670,11398,01.259,551
2023-03-15T10:11:04,42.805,6.029,CST-1368DR,4352,4679,11421,01.251,551
2023-03-15T10:14:06,42.805,6.029,CST-1368DR,4352,4669,11396,01.260,551
2023-03-15T10:17:08,42.805,6.029,CST-1368DR,4352,4711,11499,01.224,551
2023-03-15T10:20:09,42.805,6.029,CST-1368DR,4352,4713,11504,01.222,551
2023-03-15T10:23:11,42.805,6.029,CST-1368DR,4352,4709,11493,01.226,551
2023-03-15T10:26:12,42.805,6.029,CST-1368DR,4352,4661,11376,01.267,551
2023-03-15T10:29:14,42.805,6.029,CST-1368DR,4352,4658,11368,01.270,551
2023-03-15T10:32:16,42.805,6.029,CST-1368DR,4352,4715,11508,01.221,551
2023-03-15T10:35:17,42.805,6.029,CST-1368DR,4352,4712,11500,01.224,551
2023-03-15T10:38:19,42.805,6.029,CST-1368DR,4352,4722,11525,01.215,551
2023-03-15T10:41:20,42.805,6.029,CST-1368DR,4352,4733,11552,01.206,551
2023-03-15T10:44:22,42.805,6.029,CST-1368DR,4352,4723,11527,01.214,551
2023-03-15T10:47:23,42.805,6.029,CST-1368DR,4352,4721,11522,01.216,551
2023-03-15T10:50:25,42.805,6.029,CST-1368DR,4352,4722,11525,01.215,551
2023-03-15T10:53:27,42.805,6.029,CST-1368DR,4352,4719,11518,01.218,551
2023-03-15T10:56:28,42.805,6.029,CST-1368DR,4352,4719,11517,01.218,552
2023-03-15T10:59:30,42.805,6.029,CST-1368DR,4352,4671,11399,01.259,551
2023-03-15T11:02:31,42.805,6.029,CST-1368DR,4353,4753,11598,01.190,551
2023-03-15T11:05:33,42.805,6.029,CST-1368DR,4352,4744,11579,01.196,551
2023-03-15T11:08:34,42.805,6.029,CST-1368DR,4352,4746,11583,01.195,551
2023-03-15T11:11:36,42.805,6.029,CST-1368DR,4353,4746,11580,01.196,551
2023-03-15T11:14:38,42.805,6.029,CST-1368DR,4353,4750,11592,01.192,551
2023-03-15T11:17:39,42.805,6.029,CST-1368DR,4352,4743,11577,01.197,551
2023-03-15T11:20:41,42.805,6.029,CST-1368DR,4352,4739,11567,01.201,551
2023-03-15T11:23:42,42.805,6.029,CST-1368DR,4353,4746,11581,01.196,551
2023-03-15T11:26:44,42.805,6.029,CST-1368DR,4353,4749,11587,01.194,551
2023-03-15T11:29:46,42.805,6.029,CST-1368DR,4352,4718,11515,01.219,551
2023-03-15T11:32:47,42.805,6.029,CST-1368DR,4352,4744,11579,01.196,551
2023-03-15T11:35:49,42.805,6.029,CST-1368DR,4352,4748,11589,01.193,551
2023-03-15T11:38:50,42.805,6.029,CST-1368DR,4352,4749,11590,01.193,551
2023-03-15T11:41:52,42.805,6.029,CST-1368DR,4352,4745,11581,01.196,551
2023-03-15T11:44:53,42.805,6.029,CST-1368DR,4352,4745,11581,01.196,551
2023-03-15T11:47:55,42.805,6.029,CST-1368DR,4353,4751,11592,01.192,551
2023-03-15T11:50:57,42.805,6.029,CST-1368DR,4352,4747,11585,01.194,551
2023-03-15T11:53:58,42.805,6.029,CST-1368DR,4352,4745,11581,01.196,551
2023-03-15T11:57:00,42.805,6.029,CST-1368DR,4352,4747,11587,01.194,551
2023-03-15T12:00:01,42.805,6.029,CST-1368DR,4352,4736,11559,01.203,551
2023-03-15T12:03:03,42.805,6.029,CST-1368DR,4353,4749,11588,01.193,551
2023-03-15T12:06:04,42.805,6.029,CST-1368DR,4352,4744,11578,01.197,551
2023-03-15T12:09:06,42.805,6.029,CST-1368DR,4352,4746,11582,01.195,551
2023-03-15T12:12:08,42.805,6.029,CST-1368DR,4353,4744,11576,01.197,551
2023-03-15T12:15:09,42.805,6.029,CST-1368DR,4352,4742,11575,01.198,551
2023-03-15T12:18:11,42.805,6.029,CST-1368DR,4352,4746,11584,01.195,551
2023-03-15T12:21:12,42.805,6.029,CST-1368DR,4352,4741,11570,01.200,551
2023-03-15T12:24:14,42.805,6.029,CST-1368DR,4353,4748,11587,01.194,551
2023-03-15T12:27:16,42.805,6.029,CST-1368DR,4353,4744,11576,01.197,551
2023-03-15T12:30:17,42.805,6.029,CST-1368DR,4352,4749,11591,01.192,551
2023-03-15T12:33:19,42.805,6.029,CST-1368DR,4353,4751,11593,01.192,551
2023-03-15T12:36:20,42.805,6.029,CST-1368DR,4353,4752,11596,01.191,551
2023-03-15T12:39:22,42.805,6.029,CST-1368DR,4353,4750,11590,01.193,551
2023-03-15T12:42:23,42.805,6.029,CST-1368DR,4353,4747,11583,01.195,551
2023-03-15T12:45:25,42.805,6.029,CST-1368DR,4352,4752,11597,01.190,551
2023-03-15T12:48:27,42.805,6.029,CST-1368DR,4352,4750,11594,01.191,551
2023-03-15T12:51:28,42.805,6.029,CST-1368DR,4353,4753,11597,01.190,551
2023-03-15T12:54:30,42.805,6.029,CST-1368DR,4352,4747,11586,01.194,551
2023-03-15T12:57:31,42.805,6.029,CST-1368DR,4353,4751,11593,01.192,551
2023-03-15T13:00:33,42.805,6.029,CST-1368DR,4353,4753,11598,01.190,551
2023-03-15T13:03:34,42.805,6.029,CST-1368DR,4353,4753,11598,01.190,551
2023-03-15T13:06:36,42.805,6.029,CST-1368DR,4352,4741,11571,01.199,551
2023-03-15T13:09:38,42.805,6.029,CST-1368DR,4352,4748,11589,01.193,551
2023-03-15T13:12:39,42.805,6.029,CST-1368DR,4352,4733,11553,01.205,551
2023-03-15T13:15:41,42.805,6.029,CST-1368DR,4352,4749,11590,01.193,551
2023-03-15T13:18:42,42.805,6.029,CST-1368DR,4353,4747,11584,01.195,551
2023-03-15T13:21:44,42.805,6.029,CST-1368DR,4352,4744,11578,01.197,551
2023-03-15T13:24:45,42.805,6.029,CST-1368DR,4352,4747,11587,01.194,551
2023-03-15T13:27:47,42.805,6.029,CST-1368DR,4352,4750,11593,01.192,551
2023-03-15T13:30:49,42.805,6.029,CST-1368DR,4353,4750,11592,01.192,551
2023-03-15T13:33:50,42.805,6.029,CST-1368DR,4353,4749,11588,01.193,551
2023-03-15T13:36:52,42.805,6.029,CST-1368DR,4352,4745,11582,01.195,551
2023-03-15T13:39:53,42.805,6.029,CST-1368DR,4352,4747,11585,01.194,551
2023-03-15T13:42:55,42.805,6.029,CST-1368DR,4353,4747,11584,01.195,551
2023-03-15T13:45:57,42.805,6.029,CST-1368DR,4353,4744,11575,01.198,551
2023-03-15T13:48:58,42.805,6.029,CST-1368DR,4352,4750,11592,01.192,551
2023-03-15T13:52:00,42.805,6.029,CST-1368DR,4352,4744,11579,01.196,551
2023-03-15T13:55:01,42.805,6.029,CST-1368DR,4353,4747,11584,01.195,551
2023-03-15T13:58:03,42.805,6.029,CST-1368DR,4352,4747,11585,01.194,551
2023-03-15T14:01:04,42.805,6.029,CST-1368DR,4352,4744,11578,01.197,551
2023-03-15T14:04:06,42.805,6.029,CST-1368DR,4352,4744,11579,01.196,551
2023-03-15T14:07:08,42.805,6.029,CST-1368DR,4353,4753,11598,01.190,551
2023-03-15T14:10:09,42.805,6.029,CST-1368DR,4352,4747,11587,01.194,551
2023-03-15T14:13:11,42.805,6.029,CST-1368DR,4353,4747,11582,01.195,551
2023-03-15T14:16:12,42.805,6.029,CST-1368DR,4353,4744,11576,01.197,551
2023-03-15T14:19:14,42.805,6.029,CST-1368DR,4353,4748,11587,01.194,551
2023-03-15T14:22:15,42.805,6.029,CST-1368DR,4352,4742,11574,01.198,551
2023-03-15T14:25:17,42.805,6.029,CST-1368DR,4353,4743,11574,01.198,551
2023-03-15T14:28:19,42.805,6.029,CST-1368DR,4352,4744,11579,01.196,551
2023-03-15T14:31:20,42.805,6.029,CST-1368DR,4352,4746,11582,01.195,551
2023-03-15T14:34:22,42.805,6.029,CST-1368DR,4352,4746,11584,01.195,551
2023-03-15T14:37:23,42.805,6.029,CST-1368DR,4352,4744,11579,01.196,551
2023-03-15T14:40:25,42.805,6.029,CST-1368DR,4352,4744,11579,01.196,551
2023-03-15T14:43:26,42.805,6.029,CST-1368DR,4352,4743,11577,01.197,551
2023-03-15T14:46:28,42.805,6.029,CST-1368DR,4352,4742,11574,01.198,551
2023-03-15T14:49:30,42.805,6.029,CST-1368DR,4352,4744,11579,01.196,551
2023-03-15T14:52:31,42.805,6.029,CST-1368DR,4352,4747,11585,01.194,551
2023-03-15T14:55:33,42.805,6.029,CST-1368DR,4352,4744,11579,01.196,551
2023-03-15T14:58:34,42.805,6.029,CST-1368DR,4352,4747,11586,01.194,551
2023-03-15T15:01:36,42.805,6.029,CST-1368DR,4352,4744,11578,01.197,551
2023-03-15T15:04:38,42.805,6.029,CST-1368DR,4352,4743,11576,01.197,551
2023-03-15T15:07:39,42.805,6.029,CST-1368DR,4352,4746,11582,01.195,551
2023-03-15T15:10:41,42.805,6.029,CST-1368DR,4352,4742,11575,01.198,551
2023-03-15T15:13:42,42.805,6.029,CST-1368DR,4352,4745,11581,01.196,551
2023-03-15T15:16:44,42.805,6.029,CST-1368DR,4352,4743,11576,01.197,551
2023-03-15T15:19:45,42.805,6.029,CST-1368DR,4352,4743,11576,01.197,551
2023-03-15T15:22:47,42.805,6.029,CST-1368DR,4352,4746,11584,01.195,551
2023-03-15T15:25:49,42.805,6.029,CST-1368DR,4352,4747,11586,01.194,551
2023-03-15T15:28:50,42.805,6.029,CST-1368DR,4352,4744,11579,01.196,551
2023-03-15T15:31:52,42.805,6.029,CST-1368DR,4352,4745,11581,01.196,551
2023-03-15T15:34:53,42.805,6.029,CST-1368DR,4352,4746,11583,01.195,551
2023-03-15T15:37:55,42.805,6.029,CST-1368DR,4352,4744,11579,01.196,551
2023-03-15T15:40:56,42.805,6.029,CST-1368DR,4352,4746,11582,01.195,551
2023-03-15T15:43:58,42.805,6.029,CST-1368DR,4353,4751,11593,01.192,551
2023-03-15T15:47:00,42.805,6.029,CST-1368DR,4352,4743,11577,01.197,551
2023-03-15T15:50:01,42.805,6.029,CST-1368DR,4352,4746,11583,01.195,551
2023-03-15T15:53:03,42.805,6.029,CST-1368DR,4352,4747,11585,01.194,551
2023-03-15T15:56:04,42.805,6.029,CST-1368DR,4352,4743,11576,01.197,551
2023-03-15T15:59:06,42.805,6.029,CST-1368DR,4352,4749,11591,01.192,551
2023-03-15T16:02:08,42.805,6.029,CST-1368DR,4352,4744,11578,01.197,551
2023-03-15T16:05:09,42.805,6.029,CST-1368DR,4352,4743,11577,01.197,551
2023-03-15T16:08:11,42.805,6.029,CST-1368DR,4352,4744,11579,01.196,551
2023-03-15T16:11:12,42.805,6.029,CST-1368DR,4352,4745,11581,01.196,551
2023-03-15T16:14:14,42.805,6.029,CST-1368DR,4352,4747,11585,01.194,551
2023-03-15T16:17:15,42.805,6.029,CST-1368DR,4352,4745,11581,01.196,551
2023-03-15T16:20:17,42.805,6.029,CST-1368DR,4352,4747,11587,01.194,551
2023-03-15T16:23:19,42.805,6.029,CST-1368DR,4352,4744,11579,01.196,551
2023-03-15T16:26:20,42.805,6.029,CST-1368DR,4352,4743,11575,01.198,551
2023-03-15T16:29:22,42.805,6.029,CST-1368DR,4352,4744,11579,01.196,551
2023-03-15T16:32:23,42.805,6.029,CST-1368DR,4352,4744,11578,01.197,551
2023-03-15T16:35:25,42.805,6.029,CST-1368DR,4352,4745,11581,01.196,551
2023-03-15T16:38:26,42.805,6.029,CST-1368DR,4352,4746,11582,01.195,551